Lakeville, MN

11:47 AM CST on December 14, 2017 (GMT -0600)
Airlake

Weather History for KLVN - August, 2013

Change the Weather History Date:

Friday, August 9, 2013

  Actual Average Record
Temperature  
Mean Temperature 63 °F -  
Max Temperature 71 °F 80 °F 94 °F (1950)
Min Temperature 55 °F 58 °F 45 °F (1972)
Degree Days  
Heating Degree Days 2    
Growing Degree Days 13 (Base 50)    
Moisture  
Dew Point 55 °F    
Average Humidity 77    
Maximum Humidity 100    
Minimum Humidity 53    
Precipitation  
Precipitation 0.00 in - - ()
Sea Level Pressure  
Sea Level Pressure 30.06 in    
Wind  
Wind Speed 5 mph (WNW)    
Max Wind Speed 17 mph    
Max Gust Speed 23 mph    
Visibility 10 miles    
Events      
Averages and records for this station are not official NWS values.
T = Trace of Precipitation, MM = Missing Value Source: NWS Daily Summary

Daily Weather History Graph

Daily Weather History Graph

Search for Another Location

Airport or City:

Trip Planner

Search our weather history database for the weather conditions in past years. The results will help you decide how hot, cold, wet, or windy it might be!

Date:

Astronomy

Aug. 09, 2013 Rise Set
Actual Time 6:08 AM CDT 8:27 PM CDT
Civil Twilight 5:36 AM CDT 8:59 PM CDT
Nautical Twilight 4:56 AM CDT 9:39 PM CDT
Astronomical Twilight 4:11 AM CDT 10:24 PM CDT
Moon 9:05 AM CDT (8/9) 9:26 PM CDT (8/9)
Length of Visible Light 15h 23m
Length of Day
14h 18m
Waxing Crescent, 8% of the Moon is Illuminated
Aug 9
Waxing Crescent
Aug 14
First Quarter
Aug 20
Full
Aug 28
Last Quarter
Sep 5
New

Hourly Weather History & Observations

Time (CDT) Temp. Dew Point Humidity Pressure Visibility Wind Dir Wind Speed Gust Speed Precip Events Conditions
12:09 AM 57.2 °F 57.2 °F 100% 30.02 in 10.0 mi SSW 4.6 mph - N/A   Clear
12:29 AM 57.2 °F 57.2 °F 100% 30.02 in 10.0 mi SW 4.6 mph - N/A   Clear
12:48 AM 57.2 °F 57.2 °F 100% 30.02 in 10.0 mi Calm Calm - N/A   Clear
1:09 AM 57.2 °F 57.2 °F 100% 30.02 in 10.0 mi Calm Calm - N/A   Clear
1:28 AM 57.2 °F 55.4 °F 94% 30.02 in 10.0 mi Calm Calm - N/A   Clear
1:49 AM 57.2 °F 57.2 °F 100% 30.02 in 10.0 mi Calm Calm - N/A   Clear
2:09 AM 55.4 °F 55.4 °F 100% 30.01 in 10.0 mi Calm Calm - N/A   Clear
2:28 AM 57.2 °F 57.2 °F 100% 30.02 in 7.0 mi Calm Calm - N/A   Clear
2:49 AM 55.4 °F 55.4 °F 100% 30.02 in 5.0 mi Calm Calm - N/A   Clear
3:09 AM 57.2 °F 57.2 °F 100% 30.02 in 10.0 mi Calm Calm - N/A   Scattered Clouds
3:28 AM 57.2 °F 57.2 °F 100% 30.02 in 10.0 mi Calm Calm - N/A   Mostly Cloudy
3:49 AM 57.2 °F 57.2 °F 100% 30.02 in 10.0 mi Calm Calm - N/A   Overcast
4:09 AM 57.2 °F 57.2 °F 100% 30.02 in 10.0 mi West 3.5 mph - N/A   Mostly Cloudy
4:29 AM 57.2 °F 57.2 °F 100% 30.02 in 10.0 mi West 3.5 mph - N/A   Clear
4:49 AM 57.2 °F 57.2 °F 100% 30.02 in 10.0 mi West 3.5 mph - N/A   Clear
5:09 AM 57.2 °F 55.4 °F 94% 30.01 in 7.0 mi West 3.5 mph - N/A   Clear
5:29 AM 57.2 °F 57.2 °F 100% 30.02 in 10.0 mi West 4.6 mph - N/A   Clear
5:49 AM 55.4 °F 55.4 °F 100% 30.02 in 10.0 mi West 3.5 mph - N/A   Clear
6:09 AM 55.4 °F 55.4 °F 100% 30.02 in 7.0 mi West 3.5 mph - N/A   Clear
6:29 AM 55.4 °F 55.4 °F 100% 30.03 in 5.0 mi Calm Calm - N/A   Clear
6:49 AM 55.4 °F 55.4 °F 100% 30.04 in 7.0 mi Calm Calm - N/A   Clear
7:09 AM 57.2 °F 57.2 °F 100% 30.04 in 7.0 mi West 3.5 mph - N/A   Clear
7:29 AM 59.0 °F 57.2 °F 94% 30.04 in 10.0 mi West 3.5 mph - N/A   Clear
7:49 AM 60.8 °F 59.0 °F 94% 30.04 in 10.0 mi West 5.8 mph - N/A   Clear
8:08 AM 62.6 °F 59.0 °F 88% 30.05 in 10.0 mi West 4.6 mph - N/A   Clear
8:29 AM 62.6 °F 59.0 °F 88% 30.06 in 10.0 mi WNW 5.8 mph - N/A   Clear
8:49 AM 64.4 °F 57.2 °F 77% 30.06 in 10.0 mi West 5.8 mph - N/A   Clear
9:08 AM 66.2 °F 59.0 °F 78% 30.06 in 10.0 mi West 4.6 mph - N/A   Clear
9:29 AM 66.2 °F 57.2 °F 73% 30.06 in 10.0 mi West 6.9 mph - N/A   Clear
9:49 AM 66.2 °F 59.0 °F 78% 30.06 in 10.0 mi West 9.2 mph - N/A   Clear
10:09 AM 68.0 °F 57.2 °F 68% 30.06 in 10.0 mi WNW 13.8 mph - N/A   Clear
10:29 AM 69.8 °F 57.2 °F 64% 30.06 in 10.0 mi WNW 11.5 mph - N/A   Clear
10:49 AM 69.8 °F 55.4 °F 60% 30.06 in 10.0 mi WNW 13.8 mph 19.6 mph N/A   Clear
11:09 AM 69.8 °F 55.4 °F 60% 30.05 in 10.0 mi NW 12.7 mph 20.7 mph N/A   Scattered Clouds
11:29 AM 69.8 °F 53.6 °F 56% 30.05 in 10.0 mi NW 13.8 mph - N/A   Scattered Clouds
11:49 AM 69.8 °F 53.6 °F 56% 30.05 in 10.0 mi NW 17.3 mph 20.7 mph N/A   Clear
12:09 PM 71.6 °F 53.6 °F 53% 30.06 in 10.0 mi WNW 15.0 mph 23.0 mph N/A   Clear
12:29 PM 71.6 °F 53.6 °F 53% 30.06 in 10.0 mi WNW 10.4 mph 20.7 mph N/A   Clear
12:49 PM 71.6 °F 53.6 °F 53% 30.06 in 10.0 mi NW 15.0 mph 19.6 mph N/A   Clear
1:09 PM 71.6 °F 53.6 °F 53% 30.06 in 10.0 mi WNW 10.4 mph - N/A   Clear
1:28 PM 71.6 °F 53.6 °F 53% 30.06 in 10.0 mi WNW 9.2 mph 16.1 mph N/A   Clear
1:49 PM 71.6 °F 53.6 °F 53% 30.05 in 10.0 mi WNW 11.5 mph 18.4 mph N/A   Scattered Clouds
2:09 PM 71.6 °F 53.6 °F 53% 30.05 in 10.0 mi West 11.5 mph 19.6 mph N/A   Scattered Clouds
2:28 PM 71.6 °F 53.6 °F 53% 30.05 in 10.0 mi NW 11.5 mph 16.1 mph N/A   Scattered Clouds
2:49 PM 71.6 °F 53.6 °F 53% 30.05 in 10.0 mi WNW 11.5 mph - N/A   Scattered Clouds
3:09 PM 71.6 °F 53.6 °F 53% 30.06 in 10.0 mi WNW 10.4 mph - N/A   Clear
3:28 PM 71.6 °F 53.6 °F 53% 30.06 in 10.0 mi WNW 10.4 mph 16.1 mph N/A   Scattered Clouds
3:49 PM 71.6 °F 53.6 °F 53% 30.06 in 10.0 mi NW 10.4 mph 16.1 mph N/A   Scattered Clouds
4:09 PM 71.6 °F 53.6 °F 53% 30.07 in 10.0 mi NW 10.4 mph 16.1 mph N/A   Scattered Clouds
4:28 PM 71.6 °F 53.6 °F 53% 30.07 in 10.0 mi NW 10.4 mph 16.1 mph N/A   Scattered Clouds
4:49 PM 71.6 °F 53.6 °F 53% 30.07 in 10.0 mi NW 8.1 mph - N/A   Scattered Clouds
5:09 PM 71.6 °F 53.6 °F 53% 30.07 in 10.0 mi WNW 11.5 mph - N/A   Scattered Clouds
5:28 PM 68.0 °F 51.8 °F 56% 30.07 in 10.0 mi WNW 9.2 mph - N/A   Scattered Clouds
5:49 PM 69.8 °F 51.8 °F 53% 30.07 in 10.0 mi WNW 8.1 mph - N/A   Clear
6:09 PM 69.8 °F 51.8 °F 53% 30.07 in 10.0 mi WNW 8.1 mph - N/A   Clear
6:29 PM 69.8 °F 53.6 °F 56% 30.07 in 10.0 mi WNW 9.2 mph - N/A   Scattered Clouds
6:49 PM 69.8 °F 51.8 °F 53% 30.07 in 10.0 mi WNW 10.4 mph - N/A   Clear
7:09 PM 68.0 °F 51.8 °F 56% 30.08 in 10.0 mi WNW 10.4 mph - N/A   Clear
7:29 PM 66.2 °F 53.6 °F 64% 30.08 in 10.0 mi WNW 5.8 mph - N/A   Clear
7:49 PM 66.2 °F 51.8 °F 60% 30.09 in 10.0 mi WNW 6.9 mph - N/A   Clear
8:09 PM 64.4 °F 53.6 °F 68% 30.09 in 10.0 mi West 4.6 mph - N/A   Clear
8:29 PM 62.6 °F 53.6 °F 72% 30.10 in 10.0 mi West 4.6 mph - N/A   Clear
8:49 PM 62.6 °F 53.6 °F 72% 30.10 in 10.0 mi West 3.5 mph - N/A   Clear
9:08 PM 62.6 °F 51.8 °F 68% 30.11 in 10.0 mi West 3.5 mph - N/A   Clear
9:29 PM 60.8 °F 53.6 °F 77% 30.12 in 10.0 mi West 3.5 mph - N/A   Clear
9:49 PM 59.0 °F 53.6 °F 82% 30.12 in 10.0 mi Calm Calm - N/A   Clear
10:08 PM 57.2 °F 53.6 °F 88% 30.12 in 10.0 mi Calm Calm - N/A   Clear
10:29 PM 55.4 °F 53.6 °F 94% 30.13 in 10.0 mi Calm Calm - N/A   Scattered Clouds
10:49 PM 55.4 °F 53.6 °F 94% 30.13 in 10.0 mi Calm Calm - N/A   Mostly Cloudy
11:08 PM 57.2 °F 55.4 °F 94% 30.13 in 10.0 mi Calm Calm - N/A   Overcast
11:29 PM 55.4 °F 53.6 °F 94% 30.13 in 10.0 mi Calm Calm - N/A   Mostly Cloudy
11:49 PM 55.4 °F 53.6 °F 94% 30.14 in 10.0 mi Calm Calm - N/A   Mostly Cloudy